Theta_e
339 341 342 342 342 342 341 341 339 338 338 339 343 337 338 340 341 340 340 339 337 335 333 332 336 337 337 337 335 336 338 339 339 338 338 337 336 337 337 336 337 337 337 335 334 332 332 330 327 325 325 331
336 339 341 341 340 341 341 340 341 340 340 340 340 339 339 339 340 340 339 339 336 334 334 335 337 337 337 336 336 336 336 337 337 336 337 336 336 336 336 336 336 336 335 334 333 332 330 329 327 325 325 330
341 333 337 338 338 338 339 340 339 339 337 336 335 334 333 332 332 334 336 337 336 335 334 333 333 338 337 336 335 335 336 337 337 336 336 336 336 335 336 336 335 335 334 333 332 330 328 324 322 321 326 329
342 334 331 334 334 336 337 337 337 335 332 329 328 327 327 326 329 328 331 327 332 330 333 330 330 334 335 335 334 335 335 336 336 336 335 335 335 335 335 335 334 333 333 332 330 328 325 322 321 329 329 330
341 339 330 331 329 331 333 334 333 330 324 322 321 322 320 322 331 332 333 334 334 324 332 324 325 333 335 334 334 335 334 335 335 335 335 335 335 334 332 328 328 329 330 329 327 326 323 320 330 329 329 330
339 338 335 339 338 339 335 329 326 329 331 326 329 319 325 329 328 329 330 331 328 332 331 329 323 328 332 333 333 334 333 335 335 335 335 334 332 329 325 321 326 324 322 322 323 320 318 328 329 329 329 331
339 338 338 338 337 336 329 331 331 331 329 329 328 327 327 326 328 328 329 329 328 329 321 327 324 327 329 331 331 333 334 333 333 334 333 331 328 325 320 322 322 322 323 322 316 317 324 328 328 326 327 329
339 339 338 337 337 335 334 333 331 330 329 328 327 327 326 326 326 327 328 323 322 323 330 328 323 324 325 325 324 325 330 330 331 330 328 326 323 320 319 321 320 320 321 321 322 323 323 325 325 325 326 328
338 338 338 337 336 334 333 332 331 329 328 327 326 326 326 326 325 326 327 327 327 328 329 330 330 329 327 326 324 320 323 323 321 321 321 319 318 319 319 320 319 320 320 320 321 321 321 322 322 323 324 326
338 338 338 337 335 333 331 331 330 329 328 327 326 326 325 324 325 325 325 326 326 326 328 328 327 326 325 323 321 319 319 317 318 317 318 318 317 317 317 317 318 318 319 319 320 320 320 321 322 322 323 325
338 338 338 338 336 334 331 330 329 328 327 327 325 325 324 325 325 325 325 325 325 325 326 326 325 324 323 321 318 316 317 315 315 316 316 316 315 315 316 315 315 316 316 318 319 318 318 319 320 321 322 322
338 338 338 338 336 335 331 329 329 328 327 326 325 324 324 324 325 325 324 324 324 324 324 324 323 322 322 321 317 314 315 314 313 314 314 314 314 314 314 315 314 315 315 316 317 318 317 317 318 319 319 319
338 338 338 337 336 336 329 331 329 328 326 326 325 324 323 323 324 324 324 323 324 323 324 322 322 322 321 320 316 314 313 314 313 313 313 314 314 314 314 314 314 314 314 315 316 317 316 316 316 317 317 317
338 337 337 337 336 336 331 333 331 327 326 326 324 324 323 323 324 324 324 323 322 323 322 322 321 321 320 320 315 314 313 312 313 313 312 312 313 313 313 314 312 313 314 314 314 314 315 315 314 314 315 315
338 337 337 336 337 336 333 334 331 328 326 325 324 324 323 322 322 323 323 323 322 323 322 321 320 320 319 319 315 314 312 311 312 311 312 312 312 313 313 312 311 312 313 313 313 312 313 312 312 312 311 312
337 337 337 337 337 337 335 334 332 330 327 323 323 323 323 322 321 321 321 322 321 322 321 320 320 320 319 319 316 313 311 310 310 311 310 310 310 310 311 310 310 311 312 312 311 310 310 310 311 311 311 312
338 338 337 336 336 336 336 334 333 330 329 327 324 323 323 322 321 320 320 320 320 319 320 320 319 319 319 318 316 312 310 309 309 308 308 308 308 308 309 310 309 309 310 310 309 309 309 309 309 308 309 310
337 337 337 336 336 335 336 335 334 332 331 329 326 324 323 323 321 320 320 320 319 319 319 319 318 318 317 317 315 311 309 309 308 308 309 307 308 307 309 310 309 310 310 307 306 308 306 307 307 307 308 308
337 337 337 336 336 336 336 335 334 333 331 330 329 327 324 323 322 321 320 320 319 318 319 318 317 317 317 316 314 310 309 308 307 308 308 307 309 307 308 308 307 309 309 307 308 307 305 307 305 305 306 305
336 337 337 337 332 336 335 335 335 335 333 331 330 327 326 325 323 321 321 320 319 318 318 318 318 318 317 316 313 311 308 307 305 305 306 306 309 307 306 306 306 306 307 306 306 304 304 304 303 304 303 304
336 336 336 337 336 336 335 335 335 335 335 333 330 328 326 325 323 322 322 321 320 318 317 317 318 318 318 317 315 313 308 307 307 305 305 304 305 309 307 305 305 303 304 304 304 302 302 302 302 303 303 303
335 335 336 336 336 334 335 335 335 335 335 334 331 329 327 327 324 322 322 321 320 318 317 317 317 318 318 316 316 314 310 308 307 306 306 304 304 306 306 305 305 303 302 302 301 301 301 300 300 301 300 300
335 336 336 336 335 335 335 335 335 335 334 335 334 331 329 327 325 322 322 321 320 318 318 317 316 316 316 315 315 314 311 310 307 306 306 306 305 305 307 308 307 306 303 301 299 299 299 299 299 300 298 298
334 334 333 332 333 333 333 335 333 335 335 335 334 332 329 327 327 326 323 322 321 320 320 318 317 316 314 314 314 314 312 310 308 306 306 307 307 303 303 304 306 305 302 300 300 299 298 297 297 297 298 297
332 331 332 332 332 331 333 332 334 333 335 336 336 335 332 329 328 328 324 322 322 321 318 318 317 317 315 314 313 314 314 313 309 307 306 305 305 303 301 301 301 302 302 300 300 299 299 298 297 297 297 296
332 333 333 332 332 332 332 331 331 331 333 335 336 336 336 333 331 329 326 323 323 322 321 320 319 317 316 313 312 313 314 313 309 308 307 306 305 303 302 300 299 299 301 299 302 301 300 301 300 298 297 295
331 333 333 333 333 332 330 329 333 334 332 332 334 334 334 334 333 331 328 325 323 322 321 320 319 319 317 312 311 311 312 313 311 310 307 305 304 301 301 300 299 299 302 303 302 301 299 299 300 304 299 299
332 332 330 330 331 329 331 328 322 327 327 331 332 332 332 333 333 333 331 329 325 324 323 321 320 320 318 313 311 312 312 311 310 309 307 306 305 304 299 299 298 300 301 303 301 298 298 298 299 300 304 303
327 326 327 325 321 321 322 319 320 324 325 326 325 330 332 333 333 333 332 331 327 325 325 323 322 320 319 318 314 312 312 311 310 310 309 307 305 304 303 301 301 299 300 302 305 306 296 295 295 299 306 300
325 326 326 323 323 321 321 322 320 320 324 325 324 326 328 328 331 332 332 332 330 327 325 325 323 322 321 319 316 313 314 312 310 310 310 308 306 305 306 307 304 300 298 300 302 305 306 307 308 304 300 303
323 324 325 325 325 326 324 324 325 325 326 327 327 326 326 328 328 329 330 330 331 329 326 326 326 324 323 321 319 315 314 312 311 311 310 309 307 306 306 306 305 303 299 297 299 300 302 303 300 305 300 300
Wind_Speed
6 6 7 8 9 8 8 8 9 8 7 8 9 7 9 10 8 10 11 11 11 10 9 6 9 13 12 11 9 10 11 12 12 12 12 12 12 12 12 13 14 15 16 15 14 13 12 9 8 8 5 5
6 6 6 6 7 7 7 8 8 7 7 9 8 9 10 8 7 9 11 10 11 10 8 4 7 13 11 11 9 8 9 10 11 12 12 11 11 11 12 13 14 15 15 15 14 12 10 7 8 7 5 5
5 7 6 6 7 7 7 7 7 7 8 9 9 9 10 10 9 8 9 9 9 7 5 5 6 10 11 11 9 8 8 10 11 11 11 11 11 11 12 12 13 13 14 13 12 10 9 9 8 7 4 4
4 6 7 7 6 7 7 7 7 8 8 9 9 10 10 10 9 8 9 10 8 7 6 5 6 10 11 11 9 9 9 10 11 11 11 11 11 12 12 13 11 10 11 10 9 9 10 8 7 4 3 4
5 5 7 6 6 6 7 7 8 9 9 9 8 8 8 8 6 5 5 7 5 7 5 6 7 9 9 10 7 7 8 9 10 11 11 12 12 12 12 10 10 10 9 8 8 8 9 8 5 3 3 3
5 5 5 5 4 4 5 6 7 6 5 5 4 7 5 4 4 4 4 5 6 4 5 6 9 10 10 9 7 6 8 9 10 11 12 13 13 12 10 9 6 6 8 8 7 7 6 5 4 3 3 3
5 6 4 4 4 4 4 5 5 4 5 3 4 4 4 3 3 4 4 4 4 4 6 7 9 10 9 9 7 6 7 8 10 11 12 12 12 11 9 6 4 3 3 4 6 5 3 3 4 3 2 3
5 6 6 5 3 3 3 3 3 3 3 3 3 4 3 3 4 4 3 5 7 6 4 6 8 10 10 10 9 9 5 7 9 10 10 11 9 6 3 3 3 3 3 3 2 2 2 3 3 3 2 2
6 5 5 6 5 3 3 3 3 3 3 3 4 4 3 3 4 4 3 3 3 3 3 4 4 4 3 3 4 6 4 3 3 3 4 4 4 3 3 3 3 3 3 3 2 2 2 2 2 3 2 2
6 6 6 6 6 4 3 3 3 3 3 3 3 3 4 4 4 4 3 3 4 3 3 4 3 3 3 3 3 2 3 2 2 2 3 3 3 3 2 3 2 2 2 3 2 2 2 2 2 2 2 2
5 6 5 5 6 5 4 3 4 4 3 3 3 3 4 5 4 4 4 4 4 4 3 4 3 3 3 3 3 1 3 3 2 2 2 2 3 2 3 3 3 2 2 2 3 3 2 2 2 2 2 2
6 6 8 6 6 5 5 4 4 3 3 3 3 3 3 3 4 4 4 4 4 4 3 4 3 3 3 3 3 2 2 3 2 2 2 2 3 3 2 3 2 2 2 2 1 3 2 2 2 1 1 1
7 6 7 6 6 7 6 4 4 4 4 4 3 3 4 4 4 4 4 4 4 3 4 3 4 4 3 3 3 3 3 3 3 2 2 2 2 2 2 2 2 2 2 1 1 1 2 2 1 1 1 1
7 8 8 8 6 6 7 7 5 5 4 3 3 5 4 4 4 4 5 4 3 5 4 4 3 3 3 3 3 3 4 2 3 3 2 2 2 2 2 2 1 1 2 1 1 1 2 1 1 1 1 0
7 8 9 8 7 5 6 6 6 5 4 3 3 4 5 4 4 4 4 4 4 4 4 4 3 3 3 3 3 3 3 3 3 3 2 3 3 3 2 2 1 1 2 1 1 1 1 1 1 1 1 0
7 8 8 8 7 8 6 6 5 6 5 5 4 4 5 4 4 4 4 5 5 5 5 4 4 3 4 3 3 3 4 4 3 3 3 3 2 2 2 3 2 1 2 2 1 1 1 1 1 1 1 1
9 6 7 8 8 7 6 7 6 5 6 7 5 5 6 5 5 5 5 5 5 5 4 4 4 4 4 4 4 4 4 5 4 4 4 3 3 3 3 3 3 2 2 2 2 1 2 1 1 1 1 2
8 8 7 8 8 8 7 6 7 7 6 6 6 6 7 6 6 5 5 5 5 4 4 5 4 4 4 4 5 4 5 4 4 4 4 4 4 3 4 4 3 3 3 2 1 2 1 2 1 1 2 2
9 8 8 8 8 8 9 7 7 7 7 6 7 7 7 8 7 7 6 6 5 6 5 5 5 5 5 4 5 4 4 4 3 4 5 4 4 3 3 2 2 3 3 3 4 3 2 3 2 2 2 2
10 9 9 8 7 8 9 8 8 8 8 8 8 8 7 10 9 8 8 7 6 5 6 6 6 6 5 6 4 4 5 5 5 4 3 4 5 5 4 3 3 2 3 3 3 2 2 2 2 2 2 3
11 9 9 9 8 9 9 9 9 9 8 8 9 9 8 9 9 9 9 10 9 6 6 7 7 6 8 8 7 6 4 4 4 5 5 4 5 5 5 5 5 3 3 3 3 3 3 2 2 3 3 3
10 9 9 8 8 7 8 9 8 8 8 8 8 9 9 10 10 10 10 8 8 8 9 7 6 7 7 6 6 7 7 7 6 5 5 5 5 6 5 6 7 7 6 5 5 4 4 3 3 3 4 2
9 8 8 7 7 8 9 8 8 7 7 8 8 9 9 9 9 9 10 10 10 9 8 10 8 6 8 8 7 6 6 5 6 7 8 11 10 8 7 7 8 6 5 4 3 4 5 4 4 4 3 3
7 7 8 8 8 8 9 9 8 9 10 7 7 8 11 12 13 14 13 12 10 7 4 5 7 9 7 7 7 6 7 8 9 11 10 9 6 6 4 3 3 3 5 3 2 4 4 3 3 6 4 4
9 10 8 8 9 10 8 8 8 8 9 9 9 7 6 7 6 5 8 9 10 11 10 8 6 5 6 7 8 9 11 9 6 4 4 3 2 7 5 4 1 2 3 4 2 3 5 5 5 6 5 6
8 9 9 8 9 8 7 7 7 7 7 9 9 11 10 10 11 11 10 10 10 12 13 11 9 9 10 8 7 8 7 6 8 8 7 6 5 4 6 4 4 3 5 2 9 4 4 6 6 8 6 7
10 9 8 9 6 6 5 4 7 8 7 6 7 8 9 9 10 12 11 12 11 11 11 11 10 8 8 10 9 7 7 7 7 8 9 9 8 5 5 3 4 7 10 7 3 2 3 5 3 4 5 8
8 6 4 4 6 5 6 5 3 4 4 7 8 7 6 6 7 7 9 11 12 10 8 9 10 8 8 11 10 10 9 10 11 10 7 8 8 7 6 6 7 9 10 7 8 4 9 2 1 6 8 9
6 4 4 3 1 1 1 1 2 4 5 5 5 7 9 10 9 8 6 6 10 12 13 13 12 10 10 11 12 9 9 9 11 12 11 11 10 11 11 10 8 8 10 11 11 7 5 1 2 9 4 2
7 7 7 6 6 7 7 7 6 8 9 7 7 8 3 3 7 8 9 8 7 8 9 10 11 11 10 9 8 10 9 10 9 10 11 12 13 14 12 10 8 7 8 13 13 12 8 4 5 3 2 3
8 8 8 10 10 10 9 9 8 7 6 6 6 5 6 6 6 7 8 7 8 8 10 10 10 9 9 10 12 13 11 10 11 12 13 11 11 11 11 8 11 11 7 5 10 11 13 12 2 2 6 9
Wind_Direction
146 143 143 144 139 137 135 133 132 128 125 81 71 106 119 124 111 104 107 110 112 117 124 131 114 112 109 112 112 114 112 113 114 109 108 111 112 113 112 116 117 114 108 103 99 99 96 79 78 77 75 88
145 140 144 140 137 137 135 137 133 131 105 76 68 74 82 89 98 114 117 114 113 117 119 97 94 112 115 107 108 117 116 113 112 109 111 113 115 117 117 118 122 117 112 109 109 108 102 84 86 82 77 92
146 144 139 137 139 138 139 132 129 114 96 95 86 82 91 90 87 100 115 114 110 106 102 89 55 106 107 108 112 112 117 116 112 114 117 116 118 118 120 121 123 117 116 115 113 108 101 93 84 75 80 82
149 147 140 140 142 140 136 131 118 106 101 100 99 97 97 97 93 95 105 107 112 114 104 81 68 95 106 115 123 117 125 123 120 120 121 122 123 122 120 121 104 99 109 107 99 97 100 100 97 90 82 74
161 152 144 140 140 137 133 127 116 109 105 101 100 101 100 96 96 99 102 110 114 117 115 91 76 109 108 116 119 123 129 128 128 127 129 129 125 121 113 87 79 83 92 85 83 93 108 110 99 86 84 76
162 158 152 142 141 139 129 118 117 114 115 110 102 104 99 94 100 103 105 110 121 116 117 82 89 108 107 104 101 123 137 131 133 133 129 128 121 106 97 89 94 88 75 68 78 88 103 113 100 84 86 90
161 163 157 144 138 129 129 124 120 120 120 116 115 106 104 106 107 109 106 114 121 119 110 93 98 104 104 105 106 119 126 136 131 126 134 121 105 101 92 92 90 86 90 88 74 83 88 100 107 97 79 95
165 169 167 162 151 143 137 133 129 125 124 127 122 120 116 117 112 107 109 101 106 108 102 93 95 92 84 80 78 76 87 96 107 117 101 92 94 91 92 96 97 97 94 90 85 85 91 95 99 105 113 100
169 169 167 174 164 143 149 144 139 140 134 135 133 127 127 121 116 112 110 113 114 112 113 105 102 88 78 73 70 85 71 76 81 91 96 90 76 86 97 100 98 110 105 96 95 91 95 98 94 109 105 110
166 165 174 174 172 152 153 155 155 147 151 147 143 142 131 127 120 121 120 126 125 125 128 125 117 103 102 94 88 70 97 86 83 87 95 96 96 93 83 79 84 77 94 118 110 114 101 106 112 108 113 116
163 179 180 176 173 170 167 164 165 174 158 156 150 145 146 141 141 136 139 138 139 135 143 138 133 125 119 118 115 101 114 92 64 80 97 95 89 87 94 83 76 81 83 88 122 119 116 105 114 113 116 120
173 183 191 188 166 178 164 164 181 177 172 151 162 158 157 148 149 150 152 150 150 147 152 151 140 134 132 123 120 127 116 117 102 93 82 97 93 96 83 98 92 97 99 109 111 125 123 121 121 113 112 107
176 181 192 191 178 192 168 176 176 173 167 177 165 165 162 162 154 161 156 158 158 155 159 150 155 154 141 134 131 135 125 132 132 123 120 115 115 103 112 117 115 115 105 125 127 129 126 127 116 107 113 119
185 184 192 199 185 188 175 199 187 158 177 178 169 184 175 177 170 170 167 161 160 167 163 163 155 156 150 144 138 143 138 146 137 136 136 124 123 128 123 125 109 131 125 110 114 113 124 118 119 116 99 332
196 184 194 198 200 183 184 187 183 169 170 171 184 184 180 178 181 170 168 165 165 174 164 167 169 166 150 149 155 150 131 141 139 139 143 151 153 155 148 130 127 156 134 130 124 89 128 115 143 138 143 131
202 194 189 190 194 204 187 184 184 186 175 169 182 176 183 184 181 177 168 170 170 177 171 174 180 167 170 166 157 156 142 143 147 143 134 129 129 133 140 139 144 147 159 152 141 149 149 170 166 173 188 165
205 197 189 188 192 196 179 188 190 188 187 188 169 179 184 185 182 183 178 178 176 175 176 171 177 182 183 171 165 153 147 137 141 142 140 129 138 136 144 149 146 139 156 160 163 180 169 195 186 203 214 195
202 202 193 190 193 191 190 187 194 202 196 188 183 178 183 186 185 185 188 176 174 172 173 178 189 187 187 179 164 154 156 157 161 156 157 154 159 165 172 174 167 168 173 179 180 194 175 210 206 201 213 220
206 199 198 193 192 190 190 191 191 191 194 195 197 189 189 187 182 187 187 185 172 177 177 180 184 192 194 171 166 164 172 158 160 162 168 164 167 161 181 167 173 192 186 182 195 194 192 204 205 223 225 230
208 205 201 197 192 191 191 193 196 193 191 194 195 196 191 199 196 186 181 179 183 187 182 183 191 192 171 176 173 175 164 164 171 171 162 191 171 165 185 179 188 199 191 197 204 203 214 213 218 225 234 240
206 207 207 201 196 196 195 198 199 197 194 196 197 194 195 193 194 202 190 178 180 188 200 189 188 193 182 175 177 178 180 190 175 164 170 183 206 192 170 187 182 188 199 198 207 202 218 217 217 227 234 232
203 206 206 207 203 197 200 201 199 196 196 203 197 197 199 191 193 196 202 203 187 184 187 202 203 175 180 184 181 179 178 192 172 178 176 183 205 205 175 190 190 195 187 179 185 200 212 208 216 228 232 225
203 202 207 207 206 208 209 203 198 194 205 203 195 200 201 197 192 192 198 198 199 203 194 187 189 183 174 176 190 185 180 181 186 186 190 191 195 201 203 193 195 188 170 178 189 200 199 194 218 232 224 216
199 199 202 204 204 210 211 210 205 196 195 200 216 201 196 195 194 195 195 193 191 203 241 246 220 205 173 168 174 182 186 189 196 201 198 211 187 185 233 278 229 167 159 143 190 246 254 230 230 238 229 220
196 199 203 205 208 214 209 210 207 206 203 199 197 196 191 206 221 216 201 196 187 198 199 201 203 199 198 185 184 187 203 198 176 180 209 158 121 166 194 235 178 134 129 140 219 243 273 277 248 257 244 240
201 203 206 204 212 211 208 205 208 215 209 207 207 200 196 195 200 197 196 199 202 208 205 206 199 190 194 194 207 205 200 188 185 179 181 169 176 198 192 203 154 162 138 215 221 211 250 255 243 238 233 235
209 207 209 210 217 207 217 219 211 214 206 209 216 215 216 209 200 196 196 196 207 207 204 205 202 206 190 187 186 182 191 197 203 197 189 181 190 159 199 160 166 181 203 212 155 89 27 263 277 212 225 228
218 211 213 219 216 204 203 205 209 215 213 203 204 216 206 218 215 210 207 194 192 206 214 209 206 203 190 189 186 194 195 193 200 192 188 189 202 176 177 206 214 199 205 210 142 214 213 219 210 297 239 225
199 183 195 184 102 105 138 337 210 206 223 218 220 222 210 215 199 208 218 210 199 195 199 205 209 205 206 202 201 197 197 199 200 196 193 183 183 184 194 206 210 197 200 214 211 198 103 89 233 228 269 56
182 194 191 182 188 197 206 208 187 204 213 210 210 218 219 229 213 211 208 204 205 214 217 210 208 208 206 206 196 205 207 207 195 199 196 192 194 206 208 218 206 211 201 219 224 235 233 230 259 175 194 118
182 196 199 201 209 214 217 222 226 220 221 218 219 214 216 221 212 217 215 213 206 202 207 215 212 208 206 205 204 202 200 197 197 201 201 194 199 206 209 212 230 218 191 200 245 241 244 249 185 201 139 230